Regional Weather Roundup
Issued by NWS

Home | Current Version | Previous Version | Text Only | Print | Product List | Glossary Off
Versions: 1 2 3 4 5 6 7 8 9 10 11 12 13 14 15 16 17 18 19 20 21 22 23 24 25 26 27 28 29 30 31 32 33 34 35 36 37 38 39 40 41 42 43 44 45 46 47 48 49 50

198
ASUS43 KDTX 301610
RWRMI
MICHIGAN HOURLY REGIONAL WEATHER ROUNDUP
NATIONAL WEATHER SERVICE DETROIT/PONTIAC MI
1200 PM EDT TUE AUG 30 2016

NOTE: "FAIR" INDICATES FEW OR NO CLOUDS BELOW 12,000 FEET WITH NO
SIGNIFICANT WEATHER AND/OR OBSTRUCTION TO VISIBILITY.

MIZ047>049-052>055-059>063-066>070-074>076-081>083-301700-
SOUTHEAST LOWER MICHIGAN

CITY           SKY/WX    TMP DP  RH WIND       PRES   REMARKS
ADRIAN         PTSUNNY   78  58  49 SW5       30.17S
ALMA           PTSUNNY   81  74  80 CALM      30.14S
ANN ARBOR      SUNNY     79  57  46 S7        30.16F
BAD AXE        SUNNY     78  68  69 W8        30.14S
CARO           SUNNY     79  68  69 SW9       30.14R
DETROIT CITY   SUNNY     79  61  53 SW9       30.15F
DETROIT        PTSUNNY   80  64  58 S7        30.16F
FLINT          CLOUDY    76  66  71 SW8       30.15F
GROSSE ILE     SUNNY     77  64  63 S6        30.16S
HILLSDALE      PTSUNNY   76  60  57 CALM      30.18R
HOWELL         LGT RAIN  77  64  64 S5        30.16F

CITY           SKY/WX    TMP DP  RH WIND       PRES   REMARKS
JACKSON        CLOUDY    77  64  64 SW6       30.17S
LAMBERTVILLE   MOSUNNY   82  58  43 CALM      30.16F
LANSING        CLOUDY    77  64  64 SW9       30.16S
LAPEER         PTSUNNY   81  65  58 W5        30.15F
MASON          MOSUNNY   78  65  64 SW5       30.16F
MONROE         SUNNY     81  58  45 SW7       30.15S
MT. CLEMENS    PTSUNNY   83  65  55 SW8       30.13F
PONTIAC        PTSUNNY   79  61  53 S8        30.15F
PORT HOPE        N/A     80  70  71 SW8       30.10F
PORT HURON     SUNNY     79  68  69 S5        30.15S
TRI CITIES     MOSUNNY   79  71  76 SW7       30.14S
MIDLAND        FAIR      82  67  60 W6        30.12S
TROY           MOSUNNY   82  53  35 SW7       30.16F
SAGINAW HB     SUNNY     79  66  65 SW7       30.13S
$$
MIZ043>046-050>051-056>058-064>065-071>073-077>080-301700-
SOUTHWEST LOWER MICHIGAN

CITY           SKY/WX    TMP DP  RH WIND       PRES   REMARKS
BATTLE CREEK   CLOUDY    72  70  93 W7        30.17S
BENTON HARBOR  CLOUDY    72  69  90 S7        30.13F
BIG RAPIDS     PTSUNNY   81  68  65 W7        30.13F
COLDWATER      LGT RAIN  72  66  82 N3        30.17S
FREMONT        CLOUDY    78  71  80 SW5       30.14S
HOLLAND        PTSUNNY   78  69  73 SW7       30.15S
GRAND RAPIDS   PTSUNNY   77  67  71 SW10      30.15R
IONIA          FAIR      78  68  72 SW5       30.14S
KALAMAZOO      LGT RAIN  72  68  87 SW3       30.16S
LUDINGTON      CLOUDY    76  72  87 SW10      30.12S
MARSHALL       CLOUDY    76  68  75 SW6       30.16S
MOUNT PLEASANT CLOUDY    81  67  62 SW5       30.12F
MUSKEGON       PTSUNNY   80  71  74 W8        30.14R
SOUTH HAVEN    CLOUDY    75  70  85 S7        30.14S
$$
MIZ016>042-301700-
NORTHERN LOWER MICHIGAN

CITY           SKY/WX    TMP DP  RH WIND       PRES   REMARKS
ALPENA         MOSUNNY   83  68  60 SW8       30.08S
BEAVER ISLAND  CLOUDY    78  69  75 W9        30.09S
BELLAIRE       CLOUDY    78  70  74 S3        30.09F
CADILLAC       PTSUNNY   80  68  68 SW9       30.13S
CHARLEVOIX     CLOUDY    76  71  85 W13       30.13R
FRANKFORT      CLOUDY    76  71  84 SW6       30.11F
GAYLORD        MOSUNNY   79  69  71 W6        30.12S
GRAYLING       CLOUDY    82  69  63 W8        30.12F
HARBOR SPRINGS CLOUDY    75  71  85 W6        30.09S
HOUGHTON LAKE  SUNNY     80  68  66 SW6       30.13F
MANISTEE       PTSUNNY   79  72  79 SW9       30.11S
OSCODA         MOSUNNY   83  69  62 SW9       30.09S
PELLSTON       CLOUDY    78  69  73 W8        30.09S
ROGERS CITY    CLOUDY    79  69  72 W7        30.08S
TRAVERSE CITY  LGT RAIN  80  70  71 W6        30.08F
$$
MIZ007>008-015-301700-
EASTERN UPPER MICHIGAN

CITY           SKY/WX    TMP DP  RH WIND       PRES   REMARKS
KINROSS        CLOUDY    74  68  81 W7        30.07S
MACKINAC ISLAN MOSUNNY   74  73  97 SW9G16    30.07F
NEWBERRY       CLOUDY    74  68  82 W6        30.08S
S. S. MARIE    CLOUDY    76  67  73 W6        30.04F
MUNISING         N/A     72  66  81 N7        30.09R
$$
MIZ004>006-011>014-085-301700-
CENTRAL UPPER MICHIGAN

CITY           SKY/WX    TMP DP  RH WIND       PRES   REMARKS
MANISTIQUE     MOSUNNY   80  68  66 NW9       30.07F
ESCANABA       PTSUNNY   78  67  68 W6        30.09R
MENOMINEE      SUNNY    N/A N/A N/A SW6       30.10
SAWYER-GWINN   CLOUDY    72  64  78 NW3       30.12R
$$
MIZ001>003-009>011-084-301700-
WESTERN UPPER MICHIGAN

CITY           SKY/WX    TMP DP  RH WIND       PRES   REMARKS
IRON MOUNTAIN  CLOUDY    74  64  71 W5        30.12R
HOUGHTON       SUNNY     72  59  63 N9        30.12S
COPPER HARBOR    N/A     67  60  78 N10       30.10S
IRONWOOD       PTSUNNY   69  62  78 N6        30.17S
$$

ABBREVIATIONS USED IN REMARKS
   TC - TEMPERATURE IN CELSIUS
  WCI - WIND CHILL INDEX
   HX - HEAT INDEX
  VSB - VISIBILITY





USA.gov is the U.S. government's official web portal to all federal, state and local government web resources and services.